[[{"header":{"parameterUnit":"m.s-1","parameterCategory":1,"la1":30.2991,"la2":30.254,"lo1":-89.0895,"lo2":-89.0444,"dy":0.0017,"dx":0.0017,"nx":28,"ny":28,"refTime":"2025-04-14T09:00:00:Z","depth":0,"parameterNumber":2,"parameterNumberName":"U-component_of_WINDS"},"data":[0,0,0,0,0,0,0,0,0,0,0,0,0,0,0,0,0,0,0,0,0,0,0,0,0,0,0,0,0,0,0,0,0,0,0,0,0,0,0,0,0,0,0,0,0,0,0,0,0,0,0,0,0,0,0,0,0,0,0.0633,0.0632,0,0.0578,0.0577,0.0577,0.0589,0.0591,0.0592,0.0593,0.0533,0.053,0.0528,0,0,0,0,0,0,0,0,0,0,0,0,0,0.0746,0.0744,0.0633,0.0632,0.0632,0.0578,0.0577,0.0577,0.0589,0.0591,0.0592,0.0593,0.0534,0.0531,0.0527,0,0,0,0,0,0,0,0,0,0,0,0,0,0.0695,0.0743,0.0633,0.0632,0.0631,0.0578,0.0577,0.0576,0.0589,0.0591,0.0592,0.0594,0.0535,0.0531,0.0527,0.0471,0,0,0.0515,0.0514,0,0,0,0,0,0,0,0,0.0698,0.069,0.0633,0.0632,0.0631,0.0592,0.0595,0.0541,0.0589,0.0605,0.0593,0.0594,0.0551,0.0546,0.0532,0.0469,0.0466,0.0515,0.0513,0.0511,0.051,0,0,0,0,0,0,0,0.0701,0.0693,0.0611,0.0632,0.0631,0.0633,0.0627,0.0585,0.057,0.0604,0.0604,0.0598,0.0551,0.0536,0.0531,0.0465,0.0515,0.0512,0.0509,0.0508,0.0352,0.0351,0,0,0,0,0,0,0.0706,0.0696,0.0613,0.061,0.0669,0.0629,0.0623,0.0603,0.057,0.0567,0.0597,0.0599,0.0542,0.0535,0.0529,0.046,0.0511,0.0507,0.0505,0.0354,0.0352,0.035,0,0,0,0,0,0,0.0708,0.0698,0.0615,0.0653,0.0643,0.0626,0.0603,0.0601,0.0586,0.0565,0.0562,0.0584,0.0543,0.0534,0.0486,0.0458,0.0506,0.0502,0.0356,0.0354,0.0351,0.0324,0,0,0,0,0,0,0.0711,0.0699,0.0678,0.0652,0.064,0.0574,0.0601,0.0599,0.058,0.0582,0.0552,0.0549,0.0543,0.0491,0.0482,0.0454,0.0499,0.0359,0.0355,0.0352,0.0327,0.032,0.0315,0,0,0,0,0,0.0716,0.0672,0.0677,0.0667,0.0614,0.0572,0.0565,0.056,0.0577,0.0556,0.0542,0.055,0.0464,0.0486,0.0476,0.0446,0.036,0.0356,0.0352,0.033,0.0322,0.0315,0,0,0,0,0,0,0.0694,0.0669,0.0674,0.0622,0.0599,0.0574,0.0547,0.0552,0.0523,0.0527,0.0521,0.0514,0.0464,0.0451,0.0477,0.039,0.0414,0.0408,0.0401,0.0393,0.0387,0.039,0.0496,0,0,0,0,0,0.0684,0.0653,0.0632,0.0587,0.0576,0.0564,0.0545,0.0543,0.0519,0.051,0.0493,0.0468,0.0435,0.0414,0.0383,0.0326,0.0319,0.03,0.0294,0.029,0.0283,0.0251,0.0242,0.0337,0.0337,0.0337,0,0,0.0661,0.0643,0.0624,0.0583,0.0565,0.0532,0.0555,0.0519,0.0494,0.0504,0.0457,0.0444,0.0416,0.0363,0.0338,0.035,0.0256,0.0284,0.0281,0.0277,0.0246,0.0237,0.0229,0.0334,0.0334,0.0335,0,0,0.0602,0.0587,0.0547,0.053,0.0503,0.0495,0.0486,0.0461,0.0453,0.0406,0.0412,0.0382,0.0326,0.0306,0.0288,0.0223,0.0228,0.0213,0.0181,0.0149,0.0142,0.0135,0.011,0.0102,0.0208,0.0207,0.0207,0,0.0577,0.0528,0.0526,0.049,0.0471,0.048,0.0439,0.0422,0.0386,0.0372,0.0386,0.0316,0.0298,0.024,0.0224,0.021,0.0198,0.0215,0.0144,0.0137,0.013,0.0107,0.0098,0.0206,0.0206,0.0206,0.0206,0,0.0498,0.0464,0.0435,0.0401,0.038,0.0341,0.0333,0.0311,0.0311,0.0302,0.0254,0.0233,0.0197,0.0184,0.0184,0.0125,0.0133,0.0145,0.0169,0.012,0.0097,0.0088,0.0203,0.0204,0.0204,0.0205,0,0,0.0422,0.0389,0.0378,0.0363,0.0335,0.0308,0.027,0.0236,0.0217,0.0192,0.0159,0.0112,0.0123,0.0104,0.0101,0.0074,0.0022,0.009,0.0089,0.0076,-0.0045,-0.0055,-0.0066,0.0027,0.0025,0.0024,-0.0043,0,0.0359,0.0293,0.0291,0.023,0.0197,0.0206,0.0173,0.0151,0.0142,0.0112,0.0102,0.0068,0.0086,0.0074,0.0048,0.0034,-0.0003,0.0039,-0.0006,-0.0008,-0.0001,-0.0077,-0.0089,-0.0151,-0.0052,-0.0053,-0.0054,0,0.0277,0.0251,0.0187,0.0163,0.015,0.012,0.0089,0.0061,0.0037,0.0032,0.001,0.0012,-0.0028,-0.0001,-0.0057,-0.0029,-0.0047,-0.0056,-0.0059,-0.0065,-0.0036,-0.0088,-0.0171,-0.0181,-0.0068,-0.0067,-0.0066,0,0.0226,0.0175,0.013,0.0117,0.0089,0.0067,0.0055,0.0032,0.0012,-0.0015,-0.0029,-0.006,-0.0078,-0.0103,-0.011,-0.009,-0.0167,-0.014,-0.0174,-0.0174,-0.0192,-0.0192,-0.0282,-0.0201,-0.0201,-0.02,-0.02,0,0.0155,0.0115,0.0107,0.0079,0.0034,0.0032,-0.0013,-0.0024,-0.0044,-0.0075,-0.0069,-0.0098,-0.0105,-0.0136,-0.0141,-0.0188,-0.0195,-0.0202,-0.0203,-0.0204,-0.0203,-0.0217,-0.0214,-0.0203,-0.0202,-0.0202,-0.0201,0,0.009,0.0083,0.0034,0.0012,0.0006,-0.0027,-0.0046,-0.0074,-0.0081,-0.0121,-0.013,-0.0144,-0.018,-0.0188,-0.0231,-0.0235,-0.029,-0.0287,-0.0282,-0.0283,-0.0316,-0.0314,-0.0421,-0.0435,-0.0343,-0.0344,-0.0344,0,0.0044,0.0013,-0.0011,-0.0031,-0.0045,-0.0076,-0.0097,-0.01,-0.0121,-0.0151,-0.0175,-0.021,-0.0238,-0.0296,-0.031,-0.0343,-0.0342,-0.0377,-0.0347,-0.0346,-0.0345,-0.0344,-0.0347,-0.0383,-0.0384,-0.0385,-0.0386,0,-0.0038,-0.0039,-0.0068,-0.0098,-0.0122,-0.0146,-0.0169,-0.0186,-0.0192,-0.0216,-0.0253,-0.0274,-0.0318,-0.0353,-0.0386,-0.04,-0.0395,-0.0394,-0.0404,-0.0406,-0.0403,-0.0407,-0.03,-0.0393,-0.0392,-0.0392,-0.0391,-0.0391,-0.0096,-0.0123,-0.0145,-0.0177,-0.0194,-0.0216,-0.0242,-0.0253,-0.0283,-0.0318,-0.0318,-0.0358,-0.0381,-0.0425,-0.0441,-0.0473,-0.0462,-0.0476,-0.048,-0.0484,-0.0488,-0.0396,-0.0478,-0.0478,-0.0478,-0.0478,-0.0478,0,-0.0179,-0.0192,-0.0221,-0.0253,-0.0279,-0.0269,-0.0294,-0.0316,-0.0351,-0.0373,-0.04,-0.0442,-0.0476,-0.0492,-0.0526,-0.0548,-0.0547,-0.0557,-0.0557,-0.0561,-0.0494,-0.0483,-0.0558,-0.0558,-0.0558,-0.0558,-0.0558,-0.0558,-0.0225,-0.027,-0.0275,-0.0329,-0.0341,-0.038,-0.0395,-0.0415,-0.0432,-0.0479,-0.0507,-0.0516,-0.0536,-0.0571,-0.0602,-0.0606,-0.062,-0.0632,-0.0635,-0.0573,-0.0565,-0.0558,-0.0547,-0.0635,-0.0635,-0.0699,-0.07,-0.07]},{"header":{"parameterUnit":"m.s-1","parameterCategory":1,"la1":30.2991,"la2":30.254,"lo1":-89.0895,"lo2":-89.0444,"dy":0.0017,"dx":0.0017,"nx":28,"ny":28,"refTime":"2025-04-14T09:00:00:Z","depth":0,"parameterNumber":3,"parameterNumberName":"V-component_of_WINDS"},"data":[0,0,0,0,0,0,0,0,0,0,0,0,0,0,0,0,0,0,0,0,0,0,0,0,0,0,0,0,0,0,0,0,0,0,0,0,0,0,0,0,0,0,0,0,0,0,0,0,0,0,0,0,0,0,0,0,0,0,-5.194,-5.1941,0,-5.2004,-5.2005,-5.2006,-5.1895,-5.1891,-5.1888,-5.1884,-5.1946,-5.1951,-5.1956,0,0,0,0,0,0,0,0,0,0,0,0,0,-5.1719,-5.1724,-5.194,-5.1941,-5.1942,-5.2004,-5.2005,-5.2006,-5.1896,-5.1891,-5.1887,-5.1883,-5.1945,-5.1951,-5.1957,0,0,0,0,0,0,0,0,0,0,0,0,0,-5.1802,-5.1725,-5.194,-5.1895,-5.1891,-5.2004,-5.2005,-5.2006,-5.1897,-5.1891,-5.1886,-5.188,-5.1943,-5.195,-5.1958,-5.2117,0,0,-5.1981,-5.1984,0,0,0,0,0,0,0,0,-5.1798,-5.1811,-5.19,-5.1898,-5.1894,-5.1936,-5.195,-5.2043,-5.1898,-5.1895,-5.1884,-5.1878,-5.1947,-5.1954,-5.1978,-5.212,-5.2122,-5.1982,-5.1986,-5.199,-5.1992,0,0,0,0,0,0,0,-5.1792,-5.1807,-5.1965,-5.1902,-5.1898,-5.187,-5.1875,-5.1967,-5.1951,-5.1894,-5.1887,-5.1896,-5.1944,-5.1971,-5.1979,-5.2123,-5.1981,-5.1988,-5.1993,-5.1996,-5.2398,-5.2404,0,0,0,0,0,0,-5.1793,-5.1803,-5.1963,-5.1967,-5.1831,-5.1878,-5.1885,-5.1928,-5.195,-5.1948,-5.1901,-5.189,-5.1961,-5.197,-5.1981,-5.2169,-5.199,-5.1997,-5.2001,-5.2392,-5.24,-5.2406,0,0,0,0,0,0,-5.1788,-5.1808,-5.1961,-5.1883,-5.19,-5.1888,-5.1938,-5.1932,-5.1959,-5.1955,-5.1951,-5.1931,-5.1957,-5.197,-5.2084,-5.2169,-5.2,-5.2007,-5.2385,-5.2395,-5.2403,-5.2547,0,0,0,0,0,0,-5.1782,-5.1807,-5.1868,-5.1885,-5.1905,-5.2065,-5.1943,-5.1938,-5.1973,-5.1961,-5.1982,-5.198,-5.1953,-5.2073,-5.2092,-5.2177,-5.2013,-5.2377,-5.2389,-5.24,-5.2534,-5.256,-5.2581,0,0,0,0,0,-5.1775,-5.1905,-5.1872,-5.1892,-5.1982,-5.207,-5.2081,-5.2048,-5.198,-5.2041,-5.2038,-5.198,-5.2157,-5.2086,-5.2106,-5.2195,-5.2372,-5.2386,-5.2399,-5.2524,-5.2555,-5.2581,0,0,0,0,0,0,-5.1897,-5.1907,-5.187,-5.201,-5.204,-5.2051,-5.2127,-5.2082,-5.2131,-5.2117,-5.2072,-5.2078,-5.2202,-5.2209,-5.213,-5.235,-5.2253,-5.2271,-5.2341,-5.237,-5.2393,-5.2389,-5.202,0,0,0,0,0,-5.194,-5.2013,-5.2016,-5.2139,-5.2157,-5.214,-5.2177,-5.2149,-5.2178,-5.219,-5.2195,-5.2225,-5.2286,-5.2328,-5.2385,-5.2534,-5.2538,-5.2605,-5.2629,-5.2648,-5.2665,-5.2745,-5.2775,-5.2451,-5.2451,-5.2451,0,0,-5.203,-5.2045,-5.2093,-5.2165,-5.2185,-5.226,-5.2151,-5.2234,-5.2289,-5.2202,-5.2311,-5.2316,-5.2345,-5.2478,-5.2537,-5.2488,-5.2755,-5.2666,-5.2681,-5.2687,-5.2762,-5.2793,-5.282,-5.2461,-5.2459,-5.2457,0,0,-5.2233,-5.2251,-5.2356,-5.2379,-5.2411,-5.2399,-5.2425,-5.2443,-5.2443,-5.2552,-5.2488,-5.2552,-5.266,-5.2684,-5.271,-5.2923,-5.2871,-5.2942,-5.3066,-5.3144,-5.317,-5.3192,-5.3268,-5.3296,-5.2959,-5.2959,-5.2959,0,-5.2341,-5.2452,-5.2415,-5.2504,-5.2538,-5.2463,-5.2569,-5.2592,-5.2641,-5.2665,-5.261,-5.2745,-5.276,-5.2897,-5.2949,-5.2973,-5.3,-5.294,-5.3169,-5.3191,-5.3211,-5.3284,-5.3313,-5.2968,-5.2967,-5.2966,-5.2965,0,-5.2583,-5.2662,-5.2742,-5.2794,-5.2836,-5.2932,-5.2909,-5.2956,-5.2925,-5.2918,-5.303,-5.3045,-5.3104,-5.3134,-5.3103,-5.3268,-5.3237,-5.3176,-5.3078,-5.3252,-5.3319,-5.3346,-5.298,-5.2977,-5.2974,-5.2972,0,0,-5.2865,-5.2895,-5.2926,-5.2948,-5.2979,-5.3038,-5.3131,-5.319,-5.3231,-5.3267,-5.3344,-5.3437,-5.3382,-5.3412,-5.3383,-5.3452,-5.362,-5.3383,-5.3383,-5.3427,-5.3803,-5.3849,-5.3882,-5.3586,-5.3591,-5.3595,-5.3801,0,-5.3067,-5.323,-5.32,-5.3357,-5.3429,-5.3359,-5.344,-5.3467,-5.3464,-5.3523,-5.3517,-5.3585,-5.3506,-5.3524,-5.3589,-5.3586,-5.3695,-5.3571,-5.3656,-5.366,-5.3652,-5.3917,-5.3966,-5.416,-5.3827,-5.3831,-5.3834,0,-5.3325,-5.3373,-5.3539,-5.3559,-5.3587,-5.3661,-5.3713,-5.3771,-5.38,-5.3792,-5.3827,-5.3785,-5.3876,-5.3777,-5.3902,-5.3818,-5.3851,-5.3855,-5.3861,-5.3869,-5.3758,-5.3932,-5.422,-5.425,-5.3875,-5.3872,-5.3869,0,-5.3516,-5.3621,-5.3734,-5.3755,-5.3781,-5.3834,-5.3847,-5.387,-5.3908,-5.3953,-5.3977,-5.4031,-5.4061,-5.4104,-5.4078,-5.4008,-5.4208,-5.4106,-5.4204,-5.4205,-5.425,-5.4248,-5.4549,-5.427,-5.427,-5.4269,-5.4269,0,-5.3746,-5.385,-5.382,-5.389,-5.4004,-5.3968,-5.4081,-5.4086,-5.4107,-5.4176,-5.4117,-5.4183,-5.4144,-5.4206,-5.4185,-5.4293,-5.4306,-5.4302,-5.4296,-5.4308,-5.4309,-5.433,-5.4316,-5.4277,-5.4275,-5.4274,-5.4272,0,-5.3978,-5.3962,-5.4081,-5.4096,-5.4102,-5.4186,-5.4198,-5.4262,-5.4254,-5.4341,-5.4359,-5.4347,-5.4416,-5.4395,-5.4469,-5.4455,-5.4592,-5.4568,-5.4583,-5.4578,-5.4677,-5.4669,-5.5003,-5.5045,-5.4739,-5.4742,-5.4744,0,-5.4126,-5.4205,-5.4229,-5.4272,-5.4289,-5.4358,-5.4397,-5.4363,-5.4406,-5.4445,-5.4505,-5.457,-5.462,-5.4735,-5.4731,-5.4788,-5.4765,-5.4878,-5.4773,-5.4784,-5.4768,-5.4764,-5.4772,-5.49,-5.4903,-5.4906,-5.4908,0,-5.4392,-5.438,-5.4439,-5.4496,-5.4544,-5.4586,-5.4623,-5.4661,-5.4629,-5.468,-5.4752,-5.4791,-5.4868,-5.4933,-5.4985,-5.4996,-5.4948,-5.4941,-5.4967,-5.4981,-5.4987,-5.4986,-5.4642,-5.4934,-5.4931,-5.493,-5.4928,-5.4927,-5.4587,-5.4654,-5.4682,-5.4749,-5.4774,-5.481,-5.4872,-5.4872,-5.4931,-5.4993,-5.4969,-5.5051,-5.5077,-5.5142,-5.5161,-5.5224,-5.518,-5.5218,-5.5227,-5.5237,-5.5251,-5.4977,-5.5233,-5.5232,-5.5231,-5.5231,-5.523,0,-5.485,-5.4864,-5.4927,-5.4982,-5.5035,-5.4985,-5.5023,-5.5071,-5.5145,-5.5174,-5.5225,-5.5308,-5.5371,-5.5373,-5.5431,-5.5482,-5.5461,-5.5498,-5.5494,-5.5498,-5.5286,-5.5258,-5.5514,-5.5514,-5.5514,-5.5514,-5.5514,-5.5514,-5.4993,-5.5105,-5.5097,-5.5219,-5.5232,-5.5314,-5.534,-5.5373,-5.5397,-5.5492,-5.5545,-5.5546,-5.5564,-5.5623,-5.5679,-5.5678,-5.5702,-5.5749,-5.5739,-5.5541,-5.5513,-5.5486,-5.546,-5.5754,-5.5754,-5.5946,-5.5948,-5.5949]}]]